Showing default

EXPLORER 36 (GEOS 2), 3093

Orbit data source: Space-Track

EXPLORER 36 (GEOS 2), 3093 is a payload satellite owned by GSFC (US) in LEO that was launched on Thu, 11 Jan 1968 UTC via a THOR DELTA E1 launch vehicle from the Air Force Western Test Range (AFWTR). Payload-class satellites include a variety of spacecraft equipped with specific instruments for various scientific and technological missions. These include communications satellites like Starlink; space stations such as the ISS; scientific satellites like the Hubble; Earth observation satellites from companies like Planet Labs, Umbra, and HawkEye 360; GPS; miniature CubeSats for education and research; and military/defense satellites.

Loading next visibility...
Identifier
3093, 1968-002A
Orbit
LEO
Country
Flag of USUS
Related business
Manufacturer
APL
Mission
Spacecraft
Bus & Motor
ANNA, Unknown motor
Mass
212 kg wet, 212 kg dry
Launch date (UTC)
1968-01-11 (58 years ago)
Launch vehicle
THOR DELTA E1
Launch site
Air Force Western Test Range (AFWTR)
Object type
Payload
Rocket body
Debris
Shape & HBR
Unknown
Radar Cross Section
Large (>1 m²)

Expand to show TLE details & history
Last TLE update: 11 hours ago

TLE from 11 hours ago
0 EXPLORER 36 (GEOS 2)
1 03093U 68002A   26095.18653087 -.00000068  00000-0  28701-4 0  9998
2 03093 105.7994 317.8902 0319275 224.3934 248.4030 12.83600858727992
Epoch: 2026-04-05T04:28Z
TLE epoch observation values (Epoch: 2026-04-05T04:28:36.267Z)
Latitude
65.22886°
Longitude
-85.15393°
Altitude
1,435.161 km
Speed
7.104 km/s
True Right ascension
11h 41m 58s
True Declination
65° 06' 33"
Sunlit
Object was in daylight at epoch
Visualization orbit readout
Latitude
Unknown
Longitude
Unknown
Altitude
Unknown
Speed
Unknown
Apparent Right ascension
Unknown
Apparent Declination
Unknown
Sunlit
N/A
Visualization observer readout
Local Sidereal Time
21:08:55
Azimuth
Unknown
Elevation
Unknown
Doppler factor
Unknown
Orbital elements
Apogee altitude
1,570.741 km
Perigee altitude
1,078.87 km
Semi-major axis
7,702.943 km
Eccentricity
0.03193
Inclination
105.7994°
RAAN
317.8902°
Arg. of periapsis
224.3934°
True anomaly
245.05241°
Mean anomaly
248.403°
Eccentric anomaly
246.72259°
Mean motion
3.21039 °/min
Orbital period
112.14 mins
BSTAR
0.000028701
Loading maneuver chart data...
Computing Atmospheric mass density...
Loading historical data...
Loading historical data...
Loading historical data...
Loading historical data...
Loading historical data...
Loading historical data...
Loading historical data...

Documentation

Showing up to 5 results
|